Location: Comstock Ranch
(38.0499°N, 120.2627°W)
Time: 20:12:07
(UTC+00:00)

Cosmos 1867 - Pass Details

Date: 08 September 2024
Orbit: 772 x 802 km, 65.0° (Epoch: 10 October)

Event Time Altitude Azimuth Distance (km) Brightness Sun altitude
Exits shadow 13:03:57 - 220° (SW) 3,103 6.2 -7.3°
Reaches altitude 10° 13:05:57 10° 223° (SW) 2,350 5.5 -6.9°
Maximum altitude 13:11:17 60° 303° (WNW) 910 3.7 -5.9°
Drops below altitude 10° 13:16:42 10° 24° (NNE) 2,379 6.6 -4.9°
Sets 13:19:11 0° 28° (NNE) 3,315 7.4 -4.4°
